Time,TemperatureF,DewpointF,PressureIn,WindDirection,WindDirectionDegrees,WindSpeedMPH,WindSpeedGustMPH,Humidity,HourlyPrecipIn,Conditions,Clouds,dailyrainin,SoftwareType,DateUTC
2013-05-26 00:00:00,71.6,70.1,30.05,South,180,3.0,-999.0,95,0.00,,,0.00,Wunderground v.1.15,2013-05-26 05:00:00,
2013-05-26 00:05:00,71.6,70.1,30.05,South,180,3.0,-999.0,95,0.00,,,0.00,Wunderground v.1.15,2013-05-26 05:05:00,
2013-05-26 00:10:00,71.5,70.0,30.05,South,173,3.0,3.0,95,0.00,,,0.00,Wunderground v.1.15,2013-05-26 05:10:00,
2013-05-26 00:15:00,71.6,70.1,30.05,South,171,3.0,5.0,95,0.00,,,0.00,Wunderground v.1.15,2013-05-26 05:15:00,
2013-05-26 00:20:00,71.6,70.1,30.05,South,180,3.0,-999.0,95,0.00,,,0.00,Wunderground v.1.15,2013-05-26 05:20:00,
2013-05-26 00:25:00,71.6,70.1,30.05,South,180,2.0,-999.0,95,0.00,,,0.00,Wunderground v.1.15,2013-05-26 05:25:00,
2013-05-26 00:30:00,71.6,70.1,30.05,South,188,2.0,3.0,95,0.00,,,0.00,Wunderground v.1.15,2013-05-26 05:30:00,
2013-05-26 00:35:00,71.6,70.1,30.05,South,180,2.0,-999.0,95,0.00,,,0.00,Wunderground v.1.15,2013-05-26 05:35:00,
2013-05-26 00:40:00,71.6,70.1,30.04,SSW,209,2.0,2.0,95,0.00,,,0.00,Wunderground v.1.15,2013-05-26 05:40:00,
2013-05-26 00:45:00,71.5,70.0,30.04,SSW,203,2.0,-999.0,95,0.00,,,0.00,Wunderground v.1.15,2013-05-26 05:45:00,
2013-05-26 00:50:00,71.5,70.0,30.04,SSW,213,3.0,3.0,95,0.00,,,0.00,Wunderground v.1.15,2013-05-26 05:50:00,
2013-05-26 00:55:00,71.5,70.0,30.04,SSW,207,2.0,3.0,95,0.00,,,0.00,Wunderground v.1.15,2013-05-26 05:55:00,
2013-05-26 01:00:00,71.4,69.9,30.03,SSW,203,3.0,-999.0,95,0.00,,,0.00,Wunderground v.1.15,2013-05-26 06:00:00,
2013-05-26 01:05:00,71.4,69.9,30.03,SW,215,3.0,3.0,95,0.00,,,0.00,Wunderground v.1.15,2013-05-26 06:05:00,
2013-05-26 01:25:00,71.3,69.8,30.02,South,172,4.0,4.0,95,0.00,,,0.00,Wunderground v.1.15,2013-05-26 06:25:00,
2013-05-26 01:30:00,71.3,69.8,30.02,South,178,3.0,5.0,95,0.00,,,0.00,Wunderground v.1.15,2013-05-26 06:30:00,
2013-05-26 01:40:00,71.3,69.8,30.03,South,178,2.0,2.0,95,0.00,,,0.00,Wunderground v.1.15,2013-05-26 06:40:00,
2013-05-26 01:45:00,71.3,69.8,30.03,SSW,206,3.0,3.0,95,0.00,,,0.00,Wunderground v.1.15,2013-05-26 06:45:00,
2013-05-26 01:50:00,71.3,69.8,30.03,South,190,2.0,3.0,95,0.00,,,0.00,Wunderground v.1.15,2013-05-26 06:50:00,
2013-05-26 02:10:00,71.2,70.0,30.03,SSE,162,1.0,1.0,96,0.00,,,0.00,Wunderground v.1.15,2013-05-26 07:10:00,
2013-05-26 02:15:00,71.1,69.9,30.02,SSE,157,0.0,1.0,96,0.00,,,0.00,Wunderground v.1.15,2013-05-26 07:15:00,
2013-05-26 02:25:00,71.1,69.9,30.02,South,175,1.0,1.0,96,0.00,,,0.00,Wunderground v.1.15,2013-05-26 07:25:00,
2013-05-26 02:35:00,71.1,69.9,30.02,SSW,200,1.0,1.0,96,0.00,,,0.00,Wunderground v.1.15,2013-05-26 07:35:00,
2013-05-26 02:40:00,71.1,69.9,30.01,SSE,157,1.0,2.0,96,0.00,,,0.00,Wunderground v.1.15,2013-05-26 07:40:00,
2013-05-26 02:45:00,71.1,69.9,30.01,SW,215,2.0,3.0,96,0.00,,,0.00,Wunderground v.1.15,2013-05-26 07:45:00,
2013-05-26 02:55:00,71.1,69.9,30.01,SSW,207,3.0,4.0,96,0.00,,,0.00,Wunderground v.1.15,2013-05-26 07:55:00,
2013-05-26 03:10:00,71.2,70.3,30.00,SW,215,5.0,6.0,97,0.00,,,0.00,Wunderground v.1.15,2013-05-26 08:10:00,
2013-05-26 03:20:00,71.4,70.2,30.01,SW,226,5.0,5.0,96,0.00,,,0.00,Wunderground v.1.15,2013-05-26 08:20:00,
2013-05-26 03:25:00,71.5,70.3,30.01,SW,219,4.0,6.0,96,0.00,,,0.00,Wunderground v.1.15,2013-05-26 08:25:00,
2013-05-26 03:35:00,71.7,70.5,30.01,SW,225,5.0,7.0,96,0.00,,,0.00,Wunderground v.1.15,2013-05-26 08:35:00,
2013-05-26 03:40:00,71.7,70.5,30.01,SSW,210,5.0,5.0,96,0.00,,,0.00,Wunderground v.1.15,2013-05-26 08:40:00,
2013-05-26 03:50:00,71.8,70.6,30.01,SW,223,5.0,5.0,96,0.00,,,0.00,Wunderground v.1.15,2013-05-26 08:50:00,
2013-05-26 04:00:00,71.7,70.5,30.02,WSW,237,4.0,4.0,96,0.00,,,0.00,Wunderground v.1.15,2013-05-26 09:00:00,
2013-05-26 04:10:00,71.8,70.6,30.02,SW,221,4.0,4.0,96,0.00,,,0.00,Wunderground v.1.15,2013-05-26 09:10:00,
2013-05-26 04:30:00,71.9,71.0,30.02,SSW,207,4.0,5.0,97,0.00,,,0.00,Wunderground v.1.15,2013-05-26 09:30:00,
2013-05-26 04:40:00,71.9,71.0,30.01,SSW,205,4.0,4.0,97,0.00,,,0.00,Wunderground v.1.15,2013-05-26 09:40:00,
2013-05-26 04:45:00,71.9,71.0,30.02,South,187,4.0,4.0,97,0.00,,,0.00,Wunderground v.1.15,2013-05-26 09:45:00,
2013-05-26 04:55:00,71.8,70.9,30.01,South,179,4.0,5.0,97,0.00,,,0.00,Wunderground v.1.15,2013-05-26 09:55:00,
2013-05-26 05:10:00,71.7,70.8,30.01,South,172,4.0,6.0,97,0.00,,,0.00,Wunderground v.1.15,2013-05-26 10:10:00,
2013-05-26 05:15:00,71.8,70.9,30.01,SSW,205,5.0,7.0,97,0.00,,,0.00,Wunderground v.1.15,2013-05-26 10:15:00,
2013-05-26 05:25:00,71.8,70.9,30.01,South,182,5.0,7.0,97,0.00,,,0.00,Wunderground v.1.15,2013-05-26 10:25:00,
2013-05-26 05:40:00,72.0,71.1,30.00,South,182,7.0,7.0,97,0.00,,,0.00,Wunderground v.1.15,2013-05-26 10:40:00,
2013-05-26 05:45:00,72.0,71.1,30.00,SSE,152,7.0,7.0,97,0.00,,,0.00,Wunderground v.1.15,2013-05-26 10:45:00,
2013-05-26 05:55:00,72.0,71.1,30.00,SSE,167,7.0,10.0,97,0.00,,,0.00,Wunderground v.1.15,2013-05-26 10:55:00,
2013-05-26 06:05:00,72.0,71.1,30.00,South,173,6.0,8.0,97,0.00,,,0.00,Wunderground v.1.15,2013-05-26 11:05:00,
2013-05-26 06:15:00,72.1,71.2,30.00,SSE,155,7.0,8.0,97,0.00,,,0.00,Wunderground v.1.15,2013-05-26 11:15:00,
2013-05-26 06:20:00,72.0,71.1,30.00,South,171,7.0,8.0,97,0.00,,,0.00,Wunderground v.1.15,2013-05-26 11:20:00,
2013-05-26 06:30:00,72.0,71.1,30.01,SSE,165,5.0,7.0,97,0.00,,,0.00,Wunderground v.1.15,2013-05-26 11:30:00,
2013-05-26 06:50:00,72.2,71.3,30.01,SSE,149,6.0,6.0,97,0.00,,,0.00,Wunderground v.1.15,2013-05-26 11:50:00,
2013-05-26 06:55:00,72.2,71.3,30.01,South,187,6.0,6.0,97,0.00,,,0.00,Wunderground v.1.15,2013-05-26 11:55:00,
2013-05-26 07:10:00,72.2,71.3,30.02,SSE,157,7.0,7.0,97,0.00,,,0.00,Wunderground v.1.15,2013-05-26 12:10:00,
2013-05-26 07:15:00,72.3,71.4,30.02,South,173,6.0,8.0,97,0.00,,,0.00,Wunderground v.1.15,2013-05-26 12:15:00,
2013-05-26 07:25:00,72.4,71.5,30.02,SSW,198,5.0,7.0,97,0.00,,,0.00,Wunderground v.1.15,2013-05-26 12:25:00,
2013-05-26 07:30:00,72.5,71.6,30.02,South,181,6.0,6.0,97,0.00,,,0.00,Wunderground v.1.15,2013-05-26 12:30:00,
2013-05-26 07:35:00,72.6,71.7,30.02,SSW,195,5.0,7.0,97,0.00,,,0.00,Wunderground v.1.15,2013-05-26 12:35:00,
2013-05-26 07:40:00,72.7,71.8,30.02,South,172,6.0,7.0,97,0.00,,,0.00,Wunderground v.1.15,2013-05-26 12:40:00,
2013-05-26 07:55:00,72.9,71.7,30.02,South,187,7.0,7.0,96,0.00,,,0.00,Wunderground v.1.15,2013-05-26 12:55:00,
2013-05-26 08:05:00,73.1,71.9,30.02,South,185,7.0,7.0,96,0.00,,,0.00,Wunderground v.1.15,2013-05-26 13:05:00,
2013-05-26 08:35:00,73.9,72.1,30.02,SSW,192,8.0,8.0,94,0.00,,,0.00,Wunderground v.1.15,2013-05-26 13:35:00,
2013-05-26 08:45:00,74.2,72.0,30.03,South,176,8.0,9.0,93,0.00,,,0.00,Wunderground v.1.15,2013-05-26 13:45:00,
2013-05-26 08:55:00,74.6,72.1,30.03,SSW,205,8.0,13.0,92,0.00,,,0.00,Wunderground v.1.15,2013-05-26 13:55:00,
2013-05-26 09:05:00,74.8,72.0,30.02,South,180,10.0,10.0,91,0.00,,,0.00,Wunderground v.1.15,2013-05-26 14:05:00,
2013-05-26 09:15:00,75.5,72.4,30.02,South,173,10.0,10.0,90,0.00,,,0.00,Wunderground v.1.15,2013-05-26 14:15:00,
2013-05-26 09:20:00,75.9,72.4,30.02,SSW,207,10.0,11.0,89,0.00,,,0.00,Wunderground v.1.15,2013-05-26 14:20:00,
2013-05-26 09:30:00,76.4,72.6,30.03,SSW,207,11.0,11.0,88,0.00,,,0.00,Wunderground v.1.15,2013-05-26 14:30:00,
2013-05-26 09:45:00,77.0,72.1,30.03,South,189,10.0,10.0,85,0.00,,,0.00,Wunderground v.1.15,2013-05-26 14:45:00,
2013-05-26 09:55:00,77.4,71.8,30.03,SW,221,10.0,10.0,83,0.00,,,0.00,Wunderground v.1.15,2013-05-26 14:55:00,
2013-05-26 10:05:00,77.2,72.0,30.04,South,180,10.0,10.0,84,0.00,,,0.00,Wunderground v.1.15,2013-05-26 15:05:00,
2013-05-26 10:10:00,77.4,71.5,30.04,South,178,10.0,10.0,82,0.00,,,0.00,Wunderground v.1.15,2013-05-26 15:10:00,
2013-05-26 10:20:00,77.8,72.6,30.04,SSW,202,9.0,9.0,84,0.00,,,0.00,Wunderground v.1.15,2013-05-26 15:20:00,
2013-05-26 10:30:00,78.2,71.9,30.03,South,187,9.0,9.0,81,0.00,,,0.00,Wunderground v.1.15,2013-05-26 15:30:00,
2013-05-26 10:35:00,78.5,72.5,30.03,SW,225,9.0,9.0,82,0.00,,,0.00,Wunderground v.1.15,2013-05-26 15:35:00,
2013-05-26 10:45:00,79.9,72.4,30.03,SSW,202,9.0,10.0,78,0.00,,,0.00,Wunderground v.1.15,2013-05-26 15:45:00,
2013-05-26 10:55:00,80.4,73.3,30.03,SW,219,10.0,15.0,79,0.00,,,0.00,Wunderground v.1.15,2013-05-26 15:55:00,
2013-05-26 11:00:00,81.2,72.9,30.03,SSW,213,10.0,10.0,76,0.00,,,0.00,Wunderground v.1.15,2013-05-26 16:00:00,
2013-05-26 11:10:00,81.2,72.1,30.02,South,190,10.0,10.0,74,0.00,,,0.00,Wunderground v.1.15,2013-05-26 16:10:00,
2013-05-26 11:20:00,81.0,72.3,30.02,South,176,10.0,11.0,75,0.00,,,0.00,Wunderground v.1.15,2013-05-26 16:20:00,
2013-05-26 11:25:00,81.2,72.1,30.02,SW,225,10.0,11.0,74,0.00,,,0.00,Wunderground v.1.15,2013-05-26 16:25:00,
2013-05-26 11:35:00,81.9,72.8,30.02,SSW,192,10.0,11.0,74,0.00,,,0.00,Wunderground v.1.15,2013-05-26 16:35:00,
2013-05-26 11:45:00,81.6,72.5,30.02,SSW,192,10.0,12.0,74,0.00,,,0.00,Wunderground v.1.15,2013-05-26 16:45:00,
2013-05-26 11:55:00,81.9,72.8,30.02,West,264,9.0,9.0,74,0.00,,,0.00,Wunderground v.1.15,2013-05-26 16:55:00,
2013-05-26 12:00:00,82.0,71.7,30.02,WSW,244,10.0,10.0,71,0.00,,,0.00,Wunderground v.1.15,2013-05-26 17:00:00,
2013-05-26 12:15:00,82.3,73.6,30.01,South,171,10.0,12.0,75,0.00,,,0.00,Wunderground v.1.15,2013-05-26 17:15:00,
2013-05-26 12:20:00,82.1,72.6,30.01,SSW,200,11.0,12.0,73,0.00,,,0.00,Wunderground v.1.15,2013-05-26 17:20:00,
2013-05-26 12:30:00,83.2,72.8,30.00,SW,222,10.0,10.0,71,0.00,,,0.00,Wunderground v.1.15,2013-05-26 17:30:00,
2013-05-26 12:35:00,83.4,73.0,30.00,South,190,12.0,15.0,71,0.00,,,0.00,Wunderground v.1.15,2013-05-26 17:35:00,
2013-05-26 12:45:00,83.6,72.8,30.00,SSW,199,14.0,14.0,70,0.00,,,0.00,Wunderground v.1.15,2013-05-26 17:45:00,
2013-05-26 12:55:00,83.9,72.6,30.00,SW,214,13.0,14.0,69,0.00,,,0.00,Wunderground v.1.15,2013-05-26 17:55:00,
2013-05-26 13:05:00,83.9,71.3,30.00,SW,218,12.0,14.0,66,0.00,,,0.00,Wunderground v.1.15,2013-05-26 18:05:00,
2013-05-26 13:15:00,84.3,72.1,29.99,SSE,161,11.0,13.0,67,0.00,,,0.00,Wunderground v.1.15,2013-05-26 18:15:00,
2013-05-26 13:20:00,84.1,72.0,29.99,SW,227,11.0,16.0,67,0.00,,,0.00,Wunderground v.1.15,2013-05-26 18:20:00,
2013-05-26 13:25:00,84.2,72.0,29.99,SW,215,11.0,16.0,67,0.00,,,0.00,Wunderground v.1.15,2013-05-26 18:25:00,
2013-05-26 13:35:00,84.2,71.6,29.99,SSW,205,10.0,14.0,66,0.00,,,0.00,Wunderground v.1.15,2013-05-26 18:35:00,
2013-05-26 13:40:00,85.0,71.9,29.98,South,178,10.0,10.0,65,0.00,,,0.00,Wunderground v.1.15,2013-05-26 18:40:00,
2013-05-26 13:50:00,84.6,70.6,29.98,South,176,11.0,17.0,63,0.00,,,0.00,Wunderground v.1.15,2013-05-26 18:50:00,
2013-05-26 14:00:00,84.6,72.0,29.98,SSW,211,11.0,13.0,66,0.00,,,0.00,Wunderground v.1.15,2013-05-26 19:00:00,
2013-05-26 14:05:00,85.2,72.6,29.98,SSW,209,10.0,13.0,66,0.00,,,0.00,Wunderground v.1.15,2013-05-26 19:05:00,
2013-05-26 14:10:00,85.4,70.9,29.98,SSW,203,10.0,10.0,62,0.00,,,0.00,Wunderground v.1.15,2013-05-26 19:10:00,
2013-05-26 14:20:00,84.3,71.2,29.98,SSE,166,11.0,11.0,65,0.00,,,0.00,Wunderground v.1.15,2013-05-26 19:20:00,
2013-05-26 14:30:00,85.1,72.5,29.97,SW,227,9.0,9.0,66,0.00,,,0.00,Wunderground v.1.15,2013-05-26 19:30:00,
2013-05-26 14:35:00,85.5,71.9,29.97,SSW,213,10.0,12.0,64,0.00,,,0.00,Wunderground v.1.15,2013-05-26 19:35:00,
2013-05-26 14:45:00,85.7,72.6,29.97,SW,229,10.0,12.0,65,0.00,,,0.00,Wunderground v.1.15,2013-05-26 19:45:00,
2013-05-26 14:55:00,85.2,72.6,29.97,South,186,10.0,10.0,66,0.00,,,0.00,Wunderground v.1.15,2013-05-26 19:55:00,
2013-05-26 15:05:00,84.8,72.2,29.97,SSW,196,10.0,12.0,66,0.00,,,0.00,Wunderground v.1.15,2013-05-26 20:05:00,
2013-05-26 15:15:00,84.7,72.1,29.97,South,176,10.0,12.0,66,0.00,,,0.00,Wunderground v.1.15,2013-05-26 20:15:00,
2013-05-26 15:25:00,84.6,72.4,29.96,South,189,10.0,10.0,67,0.00,,,0.00,Wunderground v.1.15,2013-05-26 20:25:00,
2013-05-26 15:35:00,85.6,72.0,29.95,SW,233,11.0,11.0,64,0.00,,,0.00,Wunderground v.1.15,2013-05-26 20:35:00,
2013-05-26 15:45:00,85.9,71.4,29.95,SW,217,11.0,11.0,62,0.00,,,0.00,Wunderground v.1.15,2013-05-26 20:45:00,
2013-05-26 15:50:00,86.0,72.9,29.95,SSW,208,10.0,13.0,65,0.00,,,0.00,Wunderground v.1.15,2013-05-26 20:50:00,
2013-05-26 16:10:00,84.6,72.0,29.94,SSW,199,11.0,11.0,66,0.00,,,0.00,Wunderground v.1.15,2013-05-26 21:10:00,
2013-05-26 16:20:00,85.2,72.1,29.94,South,182,10.0,16.0,65,0.00,,,0.00,Wunderground v.1.15,2013-05-26 21:20:00,
2013-05-26 16:25:00,85.4,72.3,29.94,SSW,211,10.0,16.0,65,0.00,,,0.00,Wunderground v.1.15,2013-05-26 21:25:00,
2013-05-26 16:40:00,85.6,72.5,29.93,SSW,195,11.0,11.0,65,0.00,,,0.00,Wunderground v.1.15,2013-05-26 21:40:00,
2013-05-26 16:45:00,84.9,72.7,29.93,South,190,10.0,11.0,67,0.00,,,0.00,Wunderground v.1.15,2013-05-26 21:45:00,
2013-05-26 16:55:00,84.2,72.5,29.93,SW,217,8.0,8.0,68,0.00,,,0.00,Wunderground v.1.15,2013-05-26 21:55:00,
2013-05-26 17:05:00,84.8,72.6,29.93,SSW,203,10.0,10.0,67,0.00,,,0.00,Wunderground v.1.15,2013-05-26 22:05:00,
2013-05-26 17:15:00,85.8,72.7,29.93,SW,223,11.0,12.0,65,0.00,,,0.00,Wunderground v.1.15,2013-05-26 22:15:00,
2013-05-26 17:35:00,86.1,73.4,29.92,SSE,155,10.0,10.0,66,0.00,,,0.00,Wunderground v.1.15,2013-05-26 22:35:00,
2013-05-26 17:45:00,84.9,71.8,29.92,SW,217,9.0,9.0,65,0.00,,,0.00,Wunderground v.1.15,2013-05-26 22:45:00,
2013-05-26 17:50:00,85.0,72.4,29.92,SW,227,9.0,11.0,66,0.00,,,0.00,Wunderground v.1.15,2013-05-26 22:50:00,
2013-05-26 18:00:00,85.0,72.4,29.91,South,179,11.0,12.0,66,0.00,,,0.00,Wunderground v.1.15,2013-05-26 23:00:00,
2013-05-26 18:05:00,85.6,73.4,29.91,South,179,10.0,12.0,67,0.00,,,0.00,Wunderground v.1.15,2013-05-26 23:05:00,
2013-05-26 18:15:00,85.7,72.6,29.91,South,171,10.0,10.0,65,0.00,,,0.00,Wunderground v.1.15,2013-05-26 23:15:00,
2013-05-26 18:20:00,85.7,72.6,29.91,South,172,10.0,10.0,65,0.00,,,0.00,Wunderground v.1.15,2013-05-26 23:20:00,
2013-05-26 18:25:00,85.6,72.5,29.90,SSW,192,10.0,10.0,65,0.00,,,0.00,Wunderground v.1.15,2013-05-26 23:25:00,
2013-05-26 18:30:00,85.5,71.9,29.90,South,183,11.0,14.0,64,0.00,,,0.00,Wunderground v.1.15,2013-05-26 23:30:00,
2013-05-26 18:40:00,85.2,71.6,29.90,SW,216,11.0,11.0,64,0.00,,,0.00,Wunderground v.1.15,2013-05-26 23:40:00,
2013-05-26 18:45:00,85.0,71.9,29.90,South,191,11.0,11.0,65,0.00,,,0.00,Wunderground v.1.15,2013-05-26 23:45:00,
2013-05-26 18:50:00,84.3,71.7,29.90,South,188,11.0,17.0,66,0.00,,,0.00,Wunderground v.1.15,2013-05-26 23:50:00,
2013-05-26 18:55:00,84.0,71.4,29.90,South,191,11.0,17.0,66,0.00,,,0.00,Wunderground v.1.15,2013-05-26 23:55:00,
2013-05-26 19:05:00,83.6,71.5,29.90,SSW,209,9.0,10.0,67,0.00,,,0.00,Wunderground v.1.15,2013-05-27 00:05:00,
2013-05-26 19:20:00,83.4,71.3,29.90,SW,227,10.0,13.0,67,0.00,,,0.00,Wunderground v.1.15,2013-05-27 00:20:00,
2013-05-26 19:25:00,83.6,71.0,29.90,South,189,10.0,13.0,66,0.00,,,0.00,Wunderground v.1.15,2013-05-27 00:25:00,
2013-05-26 19:35:00,83.6,71.0,29.90,South,174,9.0,9.0,66,0.00,,,0.00,Wunderground v.1.15,2013-05-27 00:35:00,
2013-05-26 19:45:00,83.0,70.9,29.90,SSW,193,8.0,8.0,67,0.00,,,0.00,Wunderground v.1.15,2013-05-27 00:45:00,
2013-05-26 19:55:00,82.1,71.8,29.90,SSW,207,7.0,7.0,71,0.00,,,0.00,Wunderground v.1.15,2013-05-27 00:55:00,
2013-05-26 20:00:00,81.8,71.5,29.90,SSW,196,7.0,11.0,71,0.00,,,0.00,Wunderground v.1.15,2013-05-27 01:00:00,
2013-05-26 20:15:00,81.1,70.4,29.90,SSW,213,10.0,10.0,70,0.00,,,0.00,Wunderground v.1.15,2013-05-27 01:15:00,
2013-05-26 20:25:00,80.3,70.0,29.90,SSW,210,10.0,10.0,71,0.00,,,0.00,Wunderground v.1.15,2013-05-27 01:25:00,
2013-05-26 20:35:00,79.4,70.0,29.90,SSW,200,8.0,8.0,73,0.00,,,0.00,Wunderground v.1.15,2013-05-27 01:35:00,
2013-05-26 20:45:00,79.0,69.6,29.91,SW,216,8.0,8.0,73,0.00,,,0.00,Wunderground v.1.15,2013-05-27 01:45:00,
2013-05-26 20:55:00,78.4,69.8,29.91,SSW,210,6.0,7.0,75,0.00,,,0.00,Wunderground v.1.15,2013-05-27 01:55:00,
2013-05-26 21:00:00,78.1,69.9,29.91,SW,225,6.0,6.0,76,0.00,,,0.00,Wunderground v.1.15,2013-05-27 02:00:00,
2013-05-26 21:05:00,77.7,69.9,29.91,SSW,196,5.0,6.0,77,0.00,,,0.00,Wunderground v.1.15,2013-05-27 02:05:00,
2013-05-26 21:20:00,77.4,69.6,29.91,SW,227,6.0,6.0,77,0.00,,,0.00,Wunderground v.1.15,2013-05-27 02:20:00,
2013-05-26 21:30:00,76.8,69.8,29.92,SW,217,5.0,6.0,79,0.00,,,0.00,Wunderground v.1.15,2013-05-27 02:30:00,
2013-05-26 21:40:00,76.5,69.9,29.91,SSW,207,5.0,6.0,80,0.00,,,0.00,Wunderground v.1.15,2013-05-27 02:40:00,
2013-05-26 21:50:00,76.1,69.8,29.92,SSE,165,5.0,5.0,81,0.00,,,0.00,Wunderground v.1.15,2013-05-27 02:50:00,
2013-05-26 22:00:00,75.7,70.2,29.92,SSW,194,3.0,3.0,83,0.00,,,0.00,Wunderground v.1.15,2013-05-27 03:00:00,
2013-05-26 22:10:00,75.2,70.0,29.93,South,182,2.0,3.0,84,0.00,,,0.00,Wunderground v.1.15,2013-05-27 03:10:00,
2013-05-26 22:20:00,75.0,70.2,29.93,South,176,3.0,4.0,85,0.00,,,0.00,Wunderground v.1.15,2013-05-27 03:20:00,
2013-05-26 22:25:00,74.8,70.0,29.94,SSW,200,3.0,4.0,85,0.00,,,0.00,Wunderground v.1.15,2013-05-27 03:25:00,
2013-05-26 22:30:00,74.6,69.8,29.94,South,181,3.0,3.0,85,0.00,,,0.00,Wunderground v.1.15,2013-05-27 03:30:00,
2013-05-26 22:40:00,74.7,69.9,29.94,South,182,4.0,7.0,85,0.00,,,0.00,Wunderground v.1.15,2013-05-27 03:40:00,
2013-05-26 22:55:00,75.4,69.9,29.94,South,184,7.0,7.0,83,0.00,,,0.00,Wunderground v.1.15,2013-05-27 03:55:00,
2013-05-26 23:00:00,75.6,70.1,29.94,SSW,196,6.0,8.0,83,0.00,,,0.00,Wunderground v.1.15,2013-05-27 04:00:00,
2013-05-26 23:05:00,75.7,70.2,29.94,South,171,7.0,8.0,83,0.00,,,0.00,Wunderground v.1.15,2013-05-27 04:05:00,
2013-05-26 23:15:00,76.1,70.2,29.95,South,176,7.0,9.0,82,0.00,,,0.00,Wunderground v.1.15,2013-05-27 04:15:00,
2013-05-26 23:25:00,76.4,70.1,29.95,SSW,200,7.0,7.0,81,0.00,,,0.00,Wunderground v.1.15,2013-05-27 04:25:00,
2013-05-26 23:35:00,76.6,70.0,29.95,SSW,195,7.0,7.0,80,0.00,,,0.00,Wunderground v.1.15,2013-05-27 04:35:00,
2013-05-26 23:45:00,76.7,70.1,29.95,South,188,8.0,8.0,80,0.00,,,0.00,Wunderground v.1.15,2013-05-27 04:45:00,
2013-05-26 23:55:00,76.2,69.6,29.95,SSW,209,7.0,7.0,80,0.00,,,0.00,Wunderground v.1.15,2013-05-27 04:55:00,